Location: ??
(34.9170°N, 135.5016°E)
Time: 16:56:35
(UTC+00:00)

Cosmos 1023 Rocket - Pass Details

Date: 29 October 2020
Orbit: 736 x 773 km, 74.1° (Epoch: 29 November)

Event Time Altitude Azimuth Distance (km) Brightness Sun altitude
Rises 20:13:20 0° 198° (SSW) 3,159 7.6 -13.6°
Reaches altitude 10° 20:15:41 10° 199° (SSW) 2,237 6.8 -13.1°
Maximum altitude 20:20:45 82° 287° (WNW) 748 4.4 -12.1°
Drops below altitude 10° 20:25:50 10° 15° (NNE) 2,245 7.0 -11.1°
Sets 20:28:11 0° 17° (NNE) 3,172 7.8 -10.6°
